Showing default

FORGESTAR-1, 64546

Orbit data source: Space-Track

FORGESTAR-1, 64546 is a payload satellite owned by Space Forge (UK) in SSO that was launched on Mon, 23 Jun 2025 UTC via an FALCON 9 launch vehicle from the Air Force Western Test Range (AFWTR). Payload-class satellites include a variety of spacecraft equipped with specific instruments for various scientific and technological missions. These include communications satellites like Starlink; space stations such as the ISS; scientific satellites like the Hubble; Earth observation satellites from companies like Planet Labs, Umbra, and HawkEye 360; GPS; miniature CubeSats for education and research; and military/defense satellites.

Loading next visibility...
Identifier
64546, 2025-135U
Orbit
SSO
Country
Flag of UKUK
Related business
Manufacturer
Space Forge
Mission
Operational Commercial Microgravity
Bus & Motor
FORGESTAR, Unknown motor
Mass
~30 kg wet, ~30 kg dry
Launch date (UTC)
2025-06-23 (4 months ago)
Launch vehicle
FALCON 9
Launch site
Air Force Western Test Range (AFWTR)
Object type
Payload
Rocket body
Debris
Shape & HBR
Box, 0.3 m
Radar Cross Section
0.225 m², Medium (>0.1 m² and < 1m²)

Expand to show TLE details & history
Last TLE update: 11 hours ago

TLE from 11 hours ago
0 FORGESTAR-1
1 64546U 25135U   25293.81216715  .00012701  00000-0  59834-3 0  9996
2 64546  97.4531  46.5462 0000284  39.1949 320.9306 15.19648087 18496
Epoch: 2025-10-20T19:29Z
TLE epoch observation values (Epoch: 2025-10-20T19:29:31.241Z)
Latitude
-0.00007°
Longitude
84.65693°
Altitude
509.84 km
Speed
7.609 km/s
True Right ascension
03h 06m 11s
True Declination
0° 00' 00"
Sunlit
Object was in full shadow at epoch
Visualization orbit readout
Latitude
Unknown
Longitude
Unknown
Altitude
Unknown
Speed
Unknown
Apparent Right ascension
Unknown
Apparent Declination
Unknown
Sunlit
N/A
Visualization observer readout
Local Sidereal Time
01:31:52
Azimuth
Unknown
Elevation
Unknown
Doppler factor
Unknown
Orbital elements
Apogee altitude
504.067 km
Perigee altitude
503.676 km
Semi-major axis
6,882.009 km
Eccentricity
0.00003
Inclination
97.4531°
RAAN
46.5462°
Arg. of periapsis
39.1949°
True anomaly
320.92855°
Mean anomaly
320.9306°
Eccentric anomaly
320.92957°
Mean motion
3.80163 °/min
Orbital period
94.7 mins
BSTAR
0.00059834
Loading maneuver chart data...
Computing Atmospheric mass density...
Loading historical data...
Loading historical data...
Loading historical data...
Loading historical data...
Loading historical data...
Loading historical data...
Loading historical data...

Documentation

Showing up to 5 results
|